Weather in Tosno

Russia / Saint-Petersburg and Leningrad Oblast     59°32′26″N   30°52′39″E
temp.,
°C
wind,
m/s
gust,
m/s
humid.,
%
clouds,
%
prec.,
mm/h
press.,
hPa
HPBL,
m
10 april, sat
sat1000:00+3ssw61688100 0.3 10091324
03:00+4ssw61576100 0.3 10091284
06:00+4ssw6147391 0.0 10091169
09:00+5ssw6137297 0.0 10101200
12:00+4ssw51192100 0.1 1011960
15:00+4sw41196100 1.1 1011707
18:00+4sw41082100 1.0 10121187
21:00+3sw411700 1.1 1015487
11 april, sun
sun1100:000sw311740 0.0 1018404
03:00−1ssw310865 0.0 1020248
06:00−1ssw310845 0.0 1022250
09:00+4sw49581 0.0 1024450
12:00+8sw453638 0.0 10251273
15:00+10ssw34295 0.0 10271863
18:00+8s24397 0.0 1027571
21:00+4se2255100 0.0 102817
12 april, mon
mon1200:00+3se2261100 0.0 102942
03:00+3se257086 0.0 1029115
06:00+3se389088 0.0 1028159
09:00+8sse488083 0.0 1027324
12:00+14s485711 0.0 1026860
15:00+16s58465 0.0 10251427
18:00+15sse48515 0.0 10241099
21:00+9sse28750 0.0 1023149
13 april, tue
tue1300:00+7sse211830 0.0 1022231
03:00+6sse2687100 0.0 1021115
06:00+5sse2689100 0.0 1020122
09:00+9s3671100 0.0 1020279
12:00+14ssw355295 0.0 1020866
15:00+16ssw354089 0.0 10191750
18:00+15w124948 0.0 1019228
21:00+9ne227570 0.0 102036
14 april, wed
wed1400:00+9se227512 0.0 101954
03:00+7se23956 0.0 101961
06:00+6ese259788 0.0 101794
09:00+9ese2898100 1.0 1016240
12:00+10se2898100 1.3 1015416
15:00+10s3996100 2.5 1014497
18:00+10s2798100 1.1 1013330
21:00+7nw2498100 2.9 1014203